Tracking 30061 objects as of 8-Dec-2024
HD Live streaming from Space Station
objects crossing your sky now

STARLINK-5987

Track STARLINK-5987 now!
10-day predictions
STARLINK-5987 is classified as:


NORAD ID: 56455
Int'l Code: 2023-064H
Perigee: 577.3 km
Apogee: 581.1 km
Inclination: 70.0 °
Period: 96.1 minutes
Semi major axis: 6950 km
RCS: Unknown
Launch date: May 10, 2023
Source: United States (US)
Launch site: AIR FORCE WESTERN TEST RANGE (AFWTR)
Your satellite tracking list
Your tracking list is empty




NASA's NSSDC Master Catalog

Two Line Element Set (TLE):
1 56455U 23064H   24343.09697165  .00000688  00000-0  65434-4 0  9997
2 56455  69.9991 215.6533 0002748 268.2755  91.8090 14.98333860 87211
Source of the keplerian elements: AFSPC